Houghton, MI

1:19 AM EST on February 19, 2018 (GMT -0500)
Houghton County Memorial

Weather History for KCMX - April, 2014

Change the Weather History Date:

Saturday, April 12, 2014

  Actual Average Record
Temperature  
Mean Temperature 32 °F -  
Max Temperature 37 °F 43 °F 76 °F (1998)
Min Temperature 28 °F 28 °F 15 °F (1992)
Degree Days  
Heating Degree Days 33    
Moisture  
Dew Point 28 °F    
Average Humidity 86    
Maximum Humidity 96    
Minimum Humidity 66    
Precipitation  
Precipitation 0.00 in - - ()
Sea Level Pressure  
Sea Level Pressure 30.01 in    
Wind  
Wind Speed 8 mph (East)    
Max Wind Speed 15 mph    
Max Gust Speed 23 mph    
Visibility 6 miles    
Events Fog    
Averages and records for this station are not official NWS values.
T = Trace of Precipitation, MM = Missing Value Source: NWS Daily Summary

Daily Weather History Graph

Daily Weather History Graph

Search for Another Location

Airport or City:

Trip Planner

Search our weather history database for the weather conditions in past years. The results will help you decide how hot, cold, wet, or windy it might be!

Date:

Astronomy

Apr. 12, 2014 Rise Set
Actual Time 7:11 AM EDT 8:38 PM EDT
Civil Twilight 6:39 AM EDT 9:10 PM EDT
Nautical Twilight 6:01 AM EDT 9:49 PM EDT
Astronomical Twilight 5:19 AM EDT 10:30 PM EDT
Moon 6:08 PM EDT (4/12) 5:48 AM EDT (4/12)
Length of Visible Light 14h 30m
Length of Day
13h 27m
Waxing Gibbous, 93% of the Moon is Illuminated
Apr 12
Waxing Gibbous
Apr 15
Full
Apr 22
Last Quarter
Apr 29
New
May 6
First Quarter

Hourly Weather History & Observations

Time (EDT) Temp. Windchill Dew Point Humidity Pressure Visibility Wind Dir Wind Speed Gust Speed Precip Events Conditions
12:53 AM 36.0 °F 33.3 °F 26.1 °F 67% 30.01 in 10.0 mi NNE 3.5 mph - N/A   Clear
1:53 AM 32.0 °F - 26.1 °F 79% 30.04 in 10.0 mi Calm Calm - N/A   Clear
2:53 AM 32.0 °F - 26.1 °F 79% 30.04 in 10.0 mi Calm Calm - N/A   Clear
3:53 AM 28.9 °F 25.2 °F 23.0 °F 78% 30.06 in 10.0 mi NW 3.5 mph - N/A   Clear
4:53 AM 33.1 °F 27.7 °F 23.0 °F 66% 30.06 in 10.0 mi ENE 5.8 mph - N/A   Clear
5:53 AM 33.1 °F 26.9 °F 24.1 °F 70% 30.05 in 10.0 mi ENE 6.9 mph - N/A   Clear
6:53 AM 32.0 °F 25.6 °F 25.0 °F 75% 30.06 in 10.0 mi East 6.9 mph - N/A   Clear
7:53 AM 30.0 °F 23.2 °F 26.1 °F 85% 30.09 in 10.0 mi East 6.9 mph - N/A   Mostly Cloudy
8:18 AM 30.2 °F 21.9 °F 26.6 °F 86% 30.05 in 3.0 mi East 9.2 mph - N/A   Mostly Cloudy
8:20 AM 30.2 °F 21.3 °F 26.6 °F 86% 30.05 in 1.8 mi East 10.4 mph - N/A   Mostly Cloudy
8:23 AM 30.2 °F 20.8 °F 26.6 °F 86% 30.05 in 0.5 mi East 11.5 mph - N/A Fog Light Freezing Fog
8:32 AM 30.2 °F 21.9 °F 28.4 °F 93% 30.05 in 0.2 mi East 9.2 mph - N/A Fog Light Freezing Fog
8:53 AM 30.0 °F 22.4 °F 28.0 °F 92% 30.10 in 0.2 mi East 8.1 mph - N/A Fog Light Freezing Fog
9:23 AM 30.2 °F 21.3 °F 28.4 °F 93% 30.07 in 1.0 mi ESE 10.4 mph - N/A   Mist
9:32 AM 30.2 °F 21.3 °F 28.4 °F 93% 30.07 in 3.0 mi East 10.4 mph - N/A   Overcast
9:53 AM 30.9 °F 21.7 °F 28.9 °F 92% 30.11 in 10.0 mi East 11.5 mph - N/A   Overcast
10:53 AM 30.9 °F 20.7 °F 28.0 °F 89% 30.11 in 10.0 mi East 13.8 mph - N/A   Overcast
11:53 AM 32.0 °F 21.6 °F 28.9 °F 88% 30.09 in 10.0 mi East 15.0 mph - N/A   Overcast
12:49 PM 33.8 °F 23.9 °F 28.4 °F 81% 30.02 in 9.0 mi ESE 15.0 mph - N/A   Overcast
12:53 PM 33.1 °F 23.0 °F 28.9 °F 85% 30.06 in 8.0 mi ESE 15.0 mph - N/A   Overcast
1:29 PM 32.0 °F 22.1 °F 28.4 °F 87% 30.01 in 5.0 mi East 13.8 mph - 0.00 in   Overcast
1:53 PM 32.0 °F 23.0 °F 28.0 °F 85% 30.05 in 9.0 mi East 11.5 mph - 0.00 in   Overcast
2:53 PM 32.0 °F 22.5 °F 28.9 °F 88% 30.02 in 10.0 mi East 12.7 mph - N/A   Overcast
3:53 PM 32.0 °F 23.6 °F 28.9 °F 88% 30.01 in 10.0 mi East 10.4 mph - N/A   Overcast
4:53 PM 32.0 °F 21.6 °F 28.9 °F 88% 29.99 in 9.0 mi East 15.0 mph 20.7 mph N/A   Overcast
5:53 PM 32.0 °F 22.1 °F 28.9 °F 88% 29.97 in 4.0 mi East 13.8 mph 23.0 mph N/A   Overcast
6:53 PM 32.0 °F 21.6 °F 28.9 °F 88% 29.96 in 7.0 mi East 15.0 mph 21.9 mph N/A   Overcast
7:53 PM 32.0 °F 21.6 °F 28.9 °F 88% 29.95 in 6.0 mi East 15.0 mph - N/A   Overcast
8:31 PM 32.0 °F 22.5 °F 30.2 °F 93% 29.91 in 2.0 mi East 12.7 mph - N/A   Overcast
8:53 PM 32.0 °F 23.6 °F 30.0 °F 92% 29.96 in 2.5 mi East 10.4 mph - N/A   Overcast
9:12 PM 33.8 °F 25.8 °F 30.2 °F 87% 29.91 in 1.2 mi East 10.4 mph - N/A   Overcast
9:22 PM 33.8 °F 24.8 °F 30.2 °F 87% 29.91 in 0.5 mi East 12.7 mph - N/A Fog Fog
9:33 PM 33.8 °F 24.8 °F 30.2 °F 87% 29.90 in 0.2 mi East 12.7 mph - N/A Fog Fog
9:42 PM 33.8 °F 24.3 °F 30.2 °F 87% 29.90 in 0.2 mi East 13.8 mph - N/A Fog Fog
9:53 PM 33.1 °F 23.4 °F 30.9 °F 92% 29.94 in 0.2 mi East 13.8 mph - N/A Fog Fog
10:53 PM 33.1 °F 24.4 °F 30.9 °F 92% 29.93 in 0.2 mi East 11.5 mph - N/A Fog Fog
11:53 PM 32.0 °F 22.1 °F 30.9 °F 96% 29.89 in 0.2 mi East 13.8 mph - N/A Fog Fog